FW7828 Weather Reports


time (UTC)temp
C
wind
direction
speed
KPH
gust
KPH
rain 1hr
cm
rain 24hr
cm
rain mn
cm
humidity
%
barometer
mb
20260906112614 22 9 1.6 1.6 0.00 0.00 0.00 98 1010.4
20260906112111 22 9 0.0 0.0 0.00 0.00 0.00 98 1010.6
20260906111610 22 1 0.0 0.0 0.00 0.00 0.00 98 1010.5
20260906111106 22 0 0.0 0.0 0.00 0.00 0.00 98 1010.5
20260906110606 22 4 0.0 0.0 0.00 0.00 0.00 98 1010.4
20260906110100 22 5 0.0 0.0 0.00 0.00 0.00 98 1010.3
20260906105554 22 3 0.0 0.0 0.00 0.00 0.00 98 1010.2
20260906105051 22 2 0.0 0.0 0.00 0.00 0.00 98 1010.3
20260906104549 22 22 0.0 0.0 0.00 0.00 0.00 98 1010.3
20260906104044 22 357 0.0 0.0 0.00 0.00 0.00 98 1010.3
20260906103542 22 1 0.0 0.0 0.00 0.00 0.00 98 1010.3
20260906103038 22 349 0.0 0.0 0.00 0.00 0.00 98 1010.1
20260906102537 22 354 1.6 1.6 0.00 0.00 0.00 98 1010.0
20260906102032 22 355 1.6 1.6 0.00 0.00 0.00 98 1010.0
20260906101527 22 9 1.6 1.6 0.00 0.00 0.00 98 1009.7
20260906101022 22 0 1.6 1.6 0.00 0.00 0.00 98 1009.9
20260906100518 22 5 0.0 0.0 0.00 0.00 0.00 98 1009.6
20260906100012 22 348 1.6 1.6 0.00 0.00 0.00 98 1009.7
20260906095507 22 357 3.2 3.2 0.00 0.00 0.00 98 1009.8
20260906095002 22 344 1.6 1.6 0.00 0.00 0.00 98 1009.8
20260906094501 22 358 1.6 1.6 0.00 0.00 0.00 98 1009.7
20260906093957 22 353 0.0 0.0 0.00 0.00 0.00 98 1009.8
20260906093453 22 354 0.0 0.0 0.00 0.00 0.00 98 1009.7
20260906092954 22 358 0.0 0.0 0.00 0.00 0.00 98 1009.5
20260906092453 22 358 0.0 0.0 0.00 0.00 0.00 98 1009.4
20260906091949 22 348 1.6 1.6 0.00 0.00 0.00 98 1009.4
20260906091444 22 10 0.0 0.0 0.00 0.00 0.00 98 1009.2
20260906090941 22 3 1.6 1.6 0.00 0.00 0.00 98 1009.2
20260906090436 22 359 0.0 0.0 0.00 0.00 0.00 98 1009.4
20260906085936 22 15 0.0 0.0 0.00 0.00 0.00 98 1009.3
20260906085435 22 359 0.0 0.0 0.00 0.00 0.00 98 1009.3
20260906084934 22 1 0.0 0.0 0.00 0.00 0.00 98 1009.4
20260906084430 22 357 0.0 0.0 0.00 0.00 0.00 98 1009.1
20260906083928 22 355 0.0 0.0 0.00 0.00 0.00 98 1009.2
20260906083424 22 342 0.0 0.0 0.00 0.00 0.00 98 1009.4
20260906082923 22 347 0.0 0.0 0.00 0.00 0.00 98 1009.1
20260906082419 22 348 0.0 0.0 0.00 0.00 0.00 97 1009.1
20260906081914 22 351 0.0 0.0 0.00 0.00 0.00 97 1009.2
20260906081410 22 8 0.0 0.0 0.00 0.00 0.00 98 1008.9
20260906080906 22 358 0.0 0.0 0.00 0.00 0.00 97 1009.0
20260906080402 22 357 0.0 0.0 0.00 0.00 0.00 97 1009.1
20260906075901 22 2 0.0 0.0 0.00 0.00 0.00 97 1009.0
20260906075356 22 1 0.0 0.0 0.00 0.00 0.00 97 1008.9
20260906074852 22 357 0.0 0.0 0.00 0.00 0.00 97 1008.9
20260906074351 22 338 0.0 0.0 0.00 0.00 0.00 97 1008.8
20260906073850 22 339 0.0 0.0 0.00 0.00 0.00 97 1008.9
20260906073345 22 344 0.0 0.0 0.00 0.00 0.00 97 1008.9
20260906072842 22 352 0.0 0.0 0.00 0.00 0.00 97 1008.8
20260906072337 22 333 0.0 0.0 0.00 0.00 0.00 97 1008.9
20260906071833 22 311 0.0 0.0 0.00 0.00 0.00 97 1009.1
20260906071328 22 337 0.0 0.0 0.00 0.00 0.00 97 1008.9
20260906070824 22 339 0.0 0.0 0.00 0.00 0.00 97 1009.0
20260906070319 22 333 0.0 0.0 0.00 0.00 0.00 97 1009.1
20260906065814 22 340 0.0 0.0 0.00 0.00 0.00 97 1008.8
20260906065309 22 343 0.0 0.0 0.00 0.00 0.00 97 1008.9
20260906064805 22 336 0.0 0.0 0.00 0.00 0.00 97 1008.9
20260906064301 22 346 0.0 0.0 0.00 0.00 0.00 97 1008.9
20260906063755 21 343 0.0 0.0 0.00 0.00 0.00 97 1009.0
20260906063251 22 346 0.0 0.0 0.00 0.00 0.00 97 1008.9
20260906062745 22 346 0.0 0.0 0.00 0.00 0.00 97 1009.0
20260906062245 22 337 0.0 0.0 0.00 0.00 0.00 97 1009.0
20260906061741 22 338 0.0 0.0 0.00 0.00 0.00 97 1009.2
20260906061237 22 337 0.0 0.0 0.00 0.00 0.00 97 1009.1
20260906060732 22 343 1.6 1.6 0.00 0.00 0.00 97 1009.2
20260906060230 22 341 1.6 1.6 0.00 0.00 0.00 97 1009.3
20260906055725 22 356 1.6 1.6 0.00 0.00 0.00 97 1009.3
20260906055220 22 2 0.0 0.0 0.00 0.00 0.00 97 1009.3
20260906054715 22 358 1.6 1.6 0.00 0.00 0.00 97 1009.4
20260906054210 22 353 1.6 1.6 0.00 0.00 0.00 97 1009.5
20260906053707 22 358 1.6 1.6 0.00 0.00 0.00 97 1009.2
20260906053202 22 353 1.6 1.6 0.00 0.00 0.00 97 1009.4
20260906052657 22 345 0.0 0.0 0.00 0.00 0.00 97 1009.4
20260906052153 22 342 1.6 3.2 0.00 0.00 0.00 97 1009.5
20260906051650 22 353 1.6 1.6 0.00 0.00 0.00 97 1009.3
20260906051149 22 356 1.6 1.6 0.00 0.00 0.00 97 1009.4
20260906050645 22 352 1.6 3.2 0.00 0.00 0.00 97 1009.3
20260906050140 22 6 1.6 1.6 0.00 0.00 0.00 97 1009.5
20260906045638 22 358 1.6 1.6 0.00 0.00 0.00 97 1009.6
20260906045133 22 359 1.6 1.6 0.00 0.00 0.00 97 1009.3
20260906044630 22 355 1.6 1.6 0.00 0.00 0.00 97 1009.5
20260906044125 22 353 1.6 1.6 0.00 0.00 0.00 97 1009.4
20260906043621 22 1 1.6 1.6 0.00 0.00 0.00 97 1009.4
20260906043116 22 3 1.6 1.6 0.00 0.00 0.00 97 1009.4
20260906042615 22 3 1.6 1.6 0.00 0.00 0.00 97 1009.4
20260906042109 22 6 0.0 0.0 0.00 0.00 0.00 97 1009.8
20260906041606 22 347 1.6 1.6 0.00 0.00 0.00 97 1009.7
20260906041101 22 335 0.0 0.0 0.00 0.00 0.00 97 1009.9
20260906040556 22 336 0.0 0.0 0.00 0.00 0.00 97 1009.8
20260906040051 22 339 0.0 0.0 0.00 0.00 0.00 97 1009.6
20260906035547 22 328 0.0 1.6 0.00 1.70 1.70 97 1009.9
20260906035042 22 347 0.0 0.0 0.00 1.70 1.70 97 1009.9
20260906034542 22 337 0.0 1.6 0.00 1.70 1.70 97 1009.7
20260906034037 22 351 0.0 0.0 0.00 1.70 1.70 97 1010.0
20260906033532 22 351 0.0 0.0 0.00 1.70 1.70 97 1009.9
20260906033028 22 351 0.0 0.0 0.00 1.70 1.70 97 1010.0
20260906032525 22 346 0.0 0.0 0.00 1.70 1.70 97 1010.0
20260906032024 22 11 0.0 0.0 0.00 1.70 1.70 97 1010.1
20260906031520 23 343 1.6 1.6 0.00 1.70 1.70 97 1010.0
20260906031015 23 358 0.0 0.0 0.00 1.70 1.70 97 1010.1
20260906030514 23 336 0.0 0.0 0.00 1.70 1.70 97 1010.1
20260906030015 23 329 0.0 0.0 0.00 1.70 1.70 97 1010.0
20260906025514 23 342 0.0 0.0 0.00 1.70 1.70 96 1010.2
20260906025012 23 1 0.0 0.0 0.00 1.70 1.70 96 1010.0
20260906024508 23 347 1.6 1.6 0.00 1.70 1.70 96 1010.1
20260906024007 23 344 0.0 0.0 0.00 1.70 1.70 96 1010.3
20260906023504 23 350 1.6 1.6 0.00 1.70 1.70 96 1010.1
20260906022958 23 359 0.0 1.6 0.00 1.70 1.70 96 1010.2
20260906022454 23 358 0.0 0.0 0.00 1.70 1.70 96 1010.3
20260906021949 23 6 0.0 0.0 0.00 1.70 1.70 96 1010.3
20260906021444 23 5 0.0 1.6 0.00 1.70 1.70 96 1009.9
20260906020938 23 346 0.0 1.6 0.00 1.70 1.70 96 1009.9
20260906020433 23 25 0.0 0.0 0.00 1.70 1.70 96 1009.9
20260906015927 23 358 0.0 0.0 0.00 1.70 1.70 96 1010.2
20260906015426 23 349 0.0 0.0 0.00 1.70 1.70 96 1010.4
20260906014921 23 344 0.0 1.6 0.00 1.70 1.70 96 1010.4
20260906014420 23 339 1.6 1.6 0.00 1.70 1.70 96 1010.5
20260906013917 23 355 0.0 0.0 0.00 1.70 1.70 96 1010.4
20260906013412 23 354 0.0 0.0 0.00 1.70 1.70 96 1010.4
20260906012908 23 173 0.0 0.0 0.00 1.70 1.70 96 1010.3
20260906012402 23 172 0.0 0.0 0.00 1.70 1.70 96 1010.1
20260906011901 23 189 0.0 1.6 0.00 1.70 1.70 96 1010.3
20260906011356 23 18 0.0 0.0 0.00 1.70 1.70 96 1010.1
20260906010852 23 32 0.0 0.0 0.00 1.70 1.70 95 1010.3
20260906010348 23 108 1.6 1.6 0.00 1.70 1.70 96 1009.8
20260906005843 23 337 1.6 1.6 0.00 1.70 1.70 96 1010.0
20260906005343 23 10 0.0 0.0 0.00 1.70 1.70 96 1009.8
20260906004841 23 38 0.0 0.0 0.00 1.70 1.70 96 1009.6
20260906004336 23 54 0.0 1.6 0.97 1.70 1.70 96 1009.8
20260906003831 23 79 0.0 0.0 4.45 1.70 1.70 95 1009.9
20260906003326 23 36 1.6 1.6 5.28 1.60 1.60 95 1009.7
20260906002822 23 9 3.2 3.2 1.98 0.99 0.99 95 1009.6
20260906002321 23 355 1.6 1.6 0.97 0.71 0.71 95 1009.5
20260906001818 23 355 1.6 1.6 0.79 0.64 0.64 95 1009.3
20260906001312 23 3 1.6 1.6 0.30 0.56 0.56 95 1009.4
20260906000807 23 2 3.2 3.2 0.00 0.51 0.51 95 1008.9
20260906000303 24 41 1.6 1.6 0.00 0.51 0.51 95 1009.1
20260905235757 24 8 3.2 3.2 0.00 0.51 0.51 95 1008.8
20260905235256 24 22 0.0 1.6 0.00 0.51 0.51 95 1008.4
20260905234752 24 34 1.6 1.6 0.00 0.51 0.51 95 1008.1
20260905234247 24 41 0.0 0.0 0.00 0.51 0.51 95 1008.2
20260905233742 25 24 0.0 0.0 0.00 0.51 0.51 94 1008.4
20260905233242 25 357 1.6 1.6 0.00 0.51 0.51 94 1008.4
20260905232742 24 40 0.0 0.0 0.00 0.51 0.51 94 1008.5
20260905232238 24 10 1.6 1.6 0.30 0.51 0.51 93 1008.3
20260905231733 25 51 0.0 0.0 2.59 0.51 0.51 93 1008.4
20260905231229 25 58 0.0 1.6 2.59 0.46 0.46 91 1008.4
20260905230725 25 10 3.2 3.2 0.66 0.10 0.10 89 1008.5
20260905230222 26 11 1.6 1.6 0.18 0.03 0.03 87 1008.5
20260905225722 26 21 0.0 0.0 0.00 0.00 0.00 87 1008.7
20260905225217 26 11 1.6 1.6 0.00 0.00 0.00 88 1009.0
20260905224716 26 17 0.0 1.6 0.00 0.00 0.00 88 1008.8
20260905224212 26 9 3.2 3.2 0.00 0.00 0.00 89 1008.8
20260905223708 26 10 3.2 3.2 0.00 0.00 0.00 90 1008.8
20260905223205 26 16 3.2 3.2 0.00 0.00 0.00 90 1008.7
20260905222700 26 11 1.6 1.6 0.00 0.00 0.00 90 1008.3
20260905222159 26 9 3.2 3.2 0.00 0.00 0.00 89 1008.2
20260905221655 26 358 1.6 1.6 0.00 0.00 0.00 88 1008.2
20260905221152 27 12 3.2 3.2 0.00 0.00 0.00 87 1008.1
20260905220647 27 6 1.6 3.2 0.00 0.00 0.00 85 1007.9
20260905220143 28 22 3.2 3.2 0.00 0.00 0.00 82 1007.8
20260905215643 27 25 1.6 1.6 0.00 0.00 0.00 82 1007.7
20260905215138 27 26 1.6 1.6 0.00 0.00 0.00 83 1007.6
20260905214634 27 9 1.6 1.6 0.00 0.00 0.00 83 1007.5
20260905214129 28 12 0.0 0.0 0.00 0.00 0.00 84 1007.5
20260905213624 28 28 0.0 0.0 0.00 0.00 0.00 83 1007.7
20260905213120 28 0 1.6 1.6 0.00 0.00 0.00 82 1007.8
20260905212615 28 24 0.0 0.0 0.00 0.00 0.00 81 1007.9
20260905212114 28 12 1.6 1.6 0.00 0.00 0.00 81 1008.0
20260905211609 28 9 1.6 1.6 0.00 0.00 0.00 80 1007.8
20260905211105 28 15 1.6 1.6 0.00 0.00 0.00 81 1007.7
20260905210601 28 341 1.6 1.6 0.00 0.00 0.00 81 1007.6
20260905210055 28 21 0.0 1.6 0.00 0.00 0.00 83 1007.5
20260905205555 28 34 0.0 0.0 0.00 0.00 0.00 83 1007.8
20260905205055 29 23 0.0 1.6 0.00 0.00 0.00 82 1007.7
20260905204549 30 34 0.0 0.0 0.00 0.00 0.00 79 1007.5
20260905204044 30 36 1.6 1.6 0.00 0.00 0.00 78 1007.7
20260905203544 30 97 0.0 0.0 0.00 0.00 0.00 74 1007.5
20260905203040 31 103 0.0 1.6 0.00 0.00 0.00 73 1007.6
20260905202535 31 106 1.6 1.6 0.00 0.00 0.00 73 1007.6
20260905202030 31 87 0.0 1.6 0.00 0.00 0.00 75 1007.8
20260905201526 31 86 0.0 0.0 0.00 0.00 0.00 74 1007.8
20260905201025 30 117 1.6 1.6 0.00 0.00 0.00 74 1007.9
20260905200521 31 113 1.6 1.6 0.00 0.00 0.00 73 1007.8
20260905200020 31 115 1.6 1.6 0.00 0.00 0.00 74 1008.0
20260905195514 31 23 1.6 1.6 0.00 0.00 0.00 74 1008.2
20260905195010 31 104 1.6 1.6 0.00 0.00 0.00 74 1008.0
20260905194504 31 128 1.6 1.6 0.00 0.00 0.00 73 1008.3
20260905194003 30 2 0.0 0.0 0.00 0.00 0.00 76 1008.4
20260905193458 30 111 1.6 3.2 0.00 0.00 0.00 75 1008.4
20260905192953 31 24 0.0 0.0 0.00 0.00 0.00 75 1008.4
20260905192449 31 82 1.6 1.6 0.00 0.00 0.00 75 1008.6
20260905191944 31 90 1.6 1.6 0.00 0.00 0.00 75 1008.4
20260905191438 31 133 1.6 1.6 0.00 0.00 0.00 74 1008.7
20260905190937 31 103 0.0 1.6 0.00 0.00 0.00 74 1008.6
20260905190435 31 121 1.6 1.6 0.00 0.00 0.00 73 1008.7
20260905185934 31 145 0.0 1.6 0.00 0.00 0.00 74 1008.8
20260905185429 31 124 0.0 1.6 0.00 0.00 0.00 73 1008.9
20260905184928 31 150 3.2 3.2 0.00 0.00 0.00 72 1008.7
20260905184423 31 75 3.2 3.2 0.00 0.00 0.00 74 1008.9
20260905183921 31 134 1.6 3.2 0.00 0.00 0.00 75 1009.0
20260905183410 31 147 1.6 3.2 0.00 0.00 0.00 73 1009.0
20260905182905 30 164 3.2 3.2 0.00 0.00 0.00 74 1009.2
20260905182404 30 138 3.2 3.2 0.00 0.00 0.00 75 1009.3
20260905181901 30 133 3.2 3.2 0.00 0.00 0.00 74 1009.3
20260905181401 30 144 1.6 1.6 0.00 0.00 0.00 78 1009.2
20260905180859 30 125 1.6 1.6 0.00 0.00 0.00 76 1009.3
20260905180355 30 89 0.0 1.6 0.00 0.00 0.00 77 1009.3
20260905175849 30 120 4.8 4.8 0.00 0.00 0.00 76 1009.3
20260905175344 30 162 1.6 3.2 0.00 0.00 0.00 76 1009.2
20260905174839 30 164 0.0 1.6 0.00 0.00 0.00 78 1009.4
20260905174335 30 159 1.6 1.6 0.00 0.00 0.00 76 1009.6
20260905173830 30 158 4.8 4.8 0.00 0.00 0.00 76 1009.5
20260905173326 30 182 1.6 1.6 0.00 0.00 0.00 78 1009.7
20260905172826 30 153 1.6 1.6 0.00 0.00 0.00 76 1009.6
20260905172324 30 185 3.2 3.2 0.00 0.00 0.00 78 1009.7
20260905171821 29 160 1.6 3.2 0.00 0.00 0.00 79 1009.7
20260905171317 29 286 1.6 3.2 0.00 0.00 0.00 78 1009.8
20260905170813 30 225 3.2 3.2 0.00 0.00 0.00 79 1009.8
20260905170309 30 237 3.2 3.2 0.00 0.00 0.00 77 1009.9
20260905165808 29 43 0.0 0.0 0.00 0.00 0.00 78 1009.9
20260905165306 29 171 1.6 1.6 0.00 0.00 0.00 79 1009.9
20260905164803 29 174 4.8 4.8 0.00 0.00 0.00 78 1009.9
20260905164258 29 187 1.6 3.2 0.00 0.00 0.00 79 1010.0
20260905163754 29 173 3.2 3.2 0.00 0.00 0.00 78 1010.0
20260905163250 29 182 4.8 4.8 0.00 0.00 0.00 79 1010.3
20260905162746 28 278 1.6 1.6 0.00 0.00 0.00 80 1010.2
20260905162245 28 224 3.2 4.8 0.00 0.00 0.00 80 1010.0
20260905161740 29 225 1.6 1.6 0.00 0.00 0.00 79 1010.2
20260905161239 29 261 0.0 1.6 0.00 0.00 0.00 79 1010.1
20260905160737 28 188 1.6 3.2 0.00 0.00 0.00 80 1010.1
20260905160237 28 273 1.6 1.6 0.00 0.00 0.00 81 1010.2
20260905155732 28 257 1.6 3.2 0.00 0.00 0.00 80 1010.6
20260905155231 28 120 1.6 1.6 0.00 0.00 0.00 80 1010.7
20260905154725 28 174 3.2 3.2 0.00 0.00 0.00 80 1010.5
20260905154221 28 164 3.2 3.2 0.00 0.00 0.00 80 1010.8
20260905153716 28 287 1.6 3.2 0.00 0.00 0.00 81 1010.7
20260905153212 28 154 3.2 3.2 0.00 0.00 0.00 79 1010.6
20260905152707 28 182 1.6 3.2 0.00 0.00 0.00 80 1010.6
20260905152201 28 167 1.6 3.2 0.00 0.00 0.00 79 1010.6
20260905151701 28 265 3.2 3.2 0.00 0.00 0.00 82 1010.7
20260905151157 27 138 1.6 1.6 0.00 0.00 0.00 82 1010.6
20260905150652 27 164 3.2 3.2 0.00 0.00 0.00 82 1010.4
20260905150150 27 70 0.0 0.0 0.00 0.00 0.00 81 1010.4
20260905145649 27 125 1.6 1.6 0.00 0.00 0.00 82 1010.7
20260905145149 27 169 3.2 3.2 0.00 0.00 0.00 81 1010.7
20260905144643 27 215 1.6 1.6 0.00 0.00 0.00 83 1010.6
20260905144143 26 181 4.8 4.8 0.00 0.00 0.00 83 1010.6
20260905143637 26 184 1.6 3.2 0.00 0.00 0.00 85 1010.2
20260905143132 26 156 3.2 3.2 0.00 0.00 0.00 85 1010.2
20260905142630 26 313 0.0 0.0 0.00 0.00 0.00 86 1010.2
20260905142125 26 173 1.6 3.2 0.00 0.00 0.00 86 1010.3
20260905141624 26 175 1.6 1.6 0.00 0.00 0.00 86 1010.3
20260905141121 26 159 0.0 1.6 0.00 0.00 0.00 86 1010.3
20260905140616 26 156 0.0 1.6 0.00 0.00 0.00 86 1010.2
20260905140115 25 63 0.0 0.0 0.00 0.00 0.00 87 1010.2
20260905135611 25 84 0.0 1.6 0.00 0.00 0.00 86 1010.5
20260905135106 26 238 1.6 1.6 0.00 0.00 0.00 87 1010.5
20260905134601 25 180 3.2 3.2 0.00 0.00 0.00 86 1010.4
20260905134059 25 46 1.6 1.6 0.00 0.00 0.00 86 1010.6
20260905133555 26 71 1.6 3.2 0.00 0.00 0.00 86 1010.6
20260905133054 26 169 4.8 4.8 0.00 0.00 0.00 85 1010.3
20260905132554 26 176 1.6 3.2 0.00 0.00 0.00 86 1010.5
20260905132049 25 351 0.0 1.6 0.00 0.00 0.00 86 1010.4
20260905131545 25 145 0.0 1.6 0.00 0.00 0.00 85 1010.6
20260905131040 25 136 3.2 3.2 0.00 0.00 0.00 85 1010.6
20260905130539 25 169 1.6 1.6 0.00 0.00 0.00 86 1010.5
20260905130034 25 205 1.6 1.6 0.00 0.00 0.00 87 1010.4
20260905125533 25 192 0.0 0.0 0.00 0.00 0.00 87 1010.6
20260905125029 25 92 0.0 0.0 0.00 0.00 0.00 89 1010.4
20260905124526 24 73 0.0 0.0 0.00 0.00 0.00 90 1010.5
20260905124021 23 132 1.6 1.6 0.00 0.00 0.00 92 1010.6
20260905123517 23 319 0.0 0.0 0.00 0.00 0.00 94 1010.6
20260905123014 23 115 0.0 0.0 0.00 0.00 0.00 94 1010.6
20260905122513 23 293 0.0 0.0 0.00 0.00 0.00 95 1010.6
20260905122008 23 15 0.0 0.0 0.00 0.00 0.00 95 1010.5
20260905121503 23 344 0.0 0.0 0.00 0.00 0.00 95 1010.6
20260905121002 23 342 0.0 0.0 0.00 0.00 0.00 96 1010.6
20260905120456 22 290 0.0 0.0 0.00 0.00 0.00 95 1010.6
20260905115952 22 345 0.0 0.0 0.00 0.00 0.00 96 1010.5
20260905115451 22 345 0.0 0.0 0.00 0.00 0.00 95 1010.7
20260905114946 22 345 0.0 0.0 0.00 0.00 0.00 95 1010.5
20260905114446 22 354 0.0 0.0 0.00 0.00 0.00 95 1010.5
20260905113944 22 301 0.0 0.0 0.00 0.00 0.00 95 1010.3
20260905113440 22 348 0.0 0.0 0.00 0.00 0.00 95 1010.3
20260905112935 22 48 0.0 0.0 0.00 0.00 0.00 95 1010.1